Home > Weather > Wolfsburg > Past weeks

Flag for Germany Weather for the Past 2 Weeks in Wolfsburg, Lower Saxony, Germany

Now
48 °F

Clear.


Feels Like: 48 °F
Forecast: 38 / 62 °F
Wind: 2 mph from East

Location: Braunschweig Wolfsburg

Current Time: May 5, 2016 at 1:21:46 AM

Latest Report: May 4, 2016 at 9:50 PM


Visibility: 10 mi

Pressure: 30.39 "Hg

Humidity: 54%

Dew Point: 32 °F

Location of WolfsburgLocation

Historic Weather in Wolfsburg — Graph

°F

Wolfsburg Temperature Yesterday

Maximum temperature yesterday: 59 °F (at 3:50 PM)
Minimum temperature yesterday: 34 °F (at 5:20 AM)
Average temperature yesterday: 50 °F

High & Low Weather Summary for the Past Weeks

 TemperatureHumidityPressure
High68 °F (May 2, 4:20 PM)100% (Apr 22, 7:50 AM)30.42 "Hg (Apr 22, 7:50 AM)
Low32 °F (Apr 21, 6:50 AM)29% (Apr 21, 4:20 PM)29.45 "Hg (Apr 26, 6:50 AM)
Average48 °F63%30.01 "Hg
* Reported Apr 19 9:50 PM — May 4 9:50 PM, Wolfsburg, Weather by CustomWeather, © 2016

Note: Actual official high and low records may vary slightly from our data, if they occured in-between our weather recording intervals... More about our weather records

Advertising

Wolfsburg Weather History for the Previous 24 Hours

Scroll right to see more
 ConditionsComfort  
Time TempWeatherWind HumidityBarometerVisibility
9:50 PM
Wed, May 4
48 °FClear.2 mph54%30.39 "Hg10 mi
9:20 PM50 °FSunny.5 mph50%30.36 "Hg10 mi
8:50 PM52 °FSunny.5 mph47%30.36 "Hg10 mi
8:20 PM55 °FSunny.5 mph41%30.36 "Hg10 mi
7:50 PM57 °FSunny.5 mph36%30.36 "Hg10 mi
7:20 PM57 °FSunny.3 mph36%30.36 "Hg10 mi
6:50 PM59 °FPassing clouds.8 mph31%30.36 "HgN/A
6:20 PM59 °FPassing clouds.5 mph34%30.36 "HgN/A
5:50 PM59 °FPassing clouds.6 mph34%30.36 "HgN/A
5:20 PM57 °FSunny.5 mph33%30.36 "Hg10 mi
4:50 PM59 °FPassing clouds.7 mph34%30.36 "HgN/A
4:20 PM59 °FSunny.5 mph39%30.36 "Hg10 mi
3:50 PM59 °FPassing clouds.6 mph39%30.36 "HgN/A
3:20 PM55 °FSunny.3 mph44%30.39 "Hg10 mi
2:50 PM55 °FScattered clouds.7 mph44%30.39 "HgN/A
2:20 PM54 °FScattered clouds.6 mph51%30.39 "HgN/A
1:50 PM55 °FScattered clouds.5 mph51%30.39 "HgN/A
1:20 PM54 °FScattered clouds.7 mph54%30.39 "HgN/A
12:50 PM54 °FBroken clouds.6 mph58%30.39 "HgN/A
12:20 PM52 °FScattered clouds.7 mph62%30.39 "HgN/A
11:50 AM50 °FScattered clouds.7 mph62%30.39 "HgN/A
11:20 AM52 °FBroken clouds.7 mph62%30.39 "HgN/A
10:50 AM50 °FBroken clouds.6 mph67%30.39 "HgN/A
10:20 AM46 °FBroken clouds.9 mph76%30.39 "HgN/A
9:50 AM46 °FPartly sunny.8 mph82%30.39 "HgN/A
9:20 AM46 °FPartly sunny.7 mph82%30.39 "HgN/A
8:50 AM45 °FPartly sunny.6 mph87%30.39 "HgN/A
8:20 AM43 °FPartly sunny.5 mph93%30.39 "HgN/A
7:50 AM41 °FPartly sunny.3 mph93%30.39 "HgN/A
7:20 AM39 °FPartly sunny.2 mph100%30.36 "HgN/A
6:50 AM37 °FPartly sunny.No wind100%30.36 "HgN/A
6:20 AM37 °FPassing clouds.No wind93%30.36 "HgN/A
5:50 AM37 °FPartly cloudy.No wind93%30.33 "HgN/A
5:20 AM34 °FPassing clouds.3 mph93%30.33 "HgN/A
4:50 AM36 °FPassing clouds.3 mph93%30.33 "HgN/A
Weather by CustomWeather, © 2016

See weather overviewHow to use our weather pages